Location: Pabrico
(37.5827°N, 122.0063°W)
Time: 11:02:28
(UTC+00:00)

Cosmos 1048 Rocket - Pass Details

Date: 13 April 2024
Orbit: 742 x 788 km, 74.0° (Epoch: 23 May)

Event Time Altitude Azimuth Distance (km) Brightness Sun altitude
Rises 12:37:16 0° 195° (SSW) 3,262 6.9 -11.8°
Reaches altitude 10° 12:39:39 10° 195° (SSW) 2,334 6.2 -11.3°
Maximum altitude 12:44:58 86° 107° (ESE) 787 4.1 -10.3°
Drops below altitude 10° 12:50:16 10° 19° (NNE) 2,325 7.1 -9.4°
Sets 12:52:39 0° 19° (NNE) 3,249 7.8 -8.9°
